Tracking 18624 objects as of 29-April-2017
HD Live streaming from Space Station
objects crossing your sky now

USA 122

Track USA 122 now!
10-day predictions
USA 122 is classified as:


NORAD ID: 23862
Int'l Code: 1996-029D
Perigee: 662.1 km
Apogee: 1,564.7 km
Inclination: 63.4 °
Period: 107.4 minutes
Semi major axis: 7484 km
RCS: Unknown
Launch date: May 12, 1996
Source: United States (US)
Launch site: AIR FORCE WESTERN TEST RANGE (AFWTR)
Your satellite tracking list
Your tracking list is empty





NASA's NSSDC Master Catalog

Two Line Element Set (TLE):
1 23862U 96029D   17116.01303025 0.00000060  00000-0  36725-4 0    03
2 23862  63.3724 188.1533 0603000  12.8342 347.1658 13.40814459    09
Source of the keplerian elements: McCants